Location: Chateh
(58.6667°N, 118.6000°W)
Time: 13:13:49
(UTC+00:00)

Gurwin Techsat 1B - Visible Passes

Search period start: 01 December 2023 00:00
Search period end: 11 December 2023 00:00
Orbit: 810 x 813 km, 98.9° (Epoch: 30 November)

Date Brightness Start Highest point End Pass type
(mag) Time Alt. Az. Time Alt. Az. Time Alt. Az.
01 Dec 11.6 09:51:50 10° NE 09:51:52 10° NE 09:51:52 10° NE visible
01 Dec 10.4 11:30:48 10° NNE 11:33:02 26° NNE 11:33:02 26° NNE visible
01 Dec 9.8 13:11:06 10° N 13:14:13 26° NNW 13:14:13 26° NNW visible
01 Dec 10.5 14:52:34 10° NNW 14:54:09 11° NNW 14:55:24 10° NW visible
02 Dec 10.7 11:07:42 10° NNE 11:09:32 21° NNE 11:09:32 21° NNE visible
02 Dec 9.8 12:47:49 10° N 12:50:43 29° NNW 12:50:43 29° NNW visible
02 Dec 10.3 14:28:49 10° N 14:31:27 14° NW 14:31:53 14° NW visible
03 Dec 11.0 10:44:40 10° NNE 10:46:02 17° NE 10:46:02 17° NE visible
03 Dec 9.9 12:24:34 10° NNE 12:27:13 29° N 12:27:13 29° N visible
03 Dec 10.1 14:05:18 10° N 14:08:23 17° NW 14:08:23 17° NW visible
03 Dec 11.3 23:58:17 10° WSW 00:01:08 14° W 00:04:00 10° NW visible
04 Dec 11.4 10:21:46 10° NE 10:22:32 13° NE 10:22:32 13° NE visible
04 Dec 10.1 12:01:21 10° NNE 12:03:42 27° NNE 12:03:42 27° NNE visible
04 Dec 10.0 13:41:54 10° N 13:44:53 21° NNW 13:44:53 21° NNW visible
05 Dec 10.4 11:38:11 10° NNE 11:40:13 24° NNE 11:40:13 24° NNE visible
05 Dec 9.9 13:18:33 10° N 13:21:23 24° NNW 13:21:23 24° NNW visible
05 Dec 10.5 15:00:17 10° NNW 15:01:25 11° NNW 15:02:31 10° NW visible
06 Dec 10.8 11:15:04 10° NNE 11:16:43 20° NNE 11:16:43 20° NNE visible
06 Dec 9.9 12:55:15 10° N 12:57:53 26° NNW 12:57:53 26° NNW visible
06 Dec 10.4 14:36:21 10° N 14:38:43 13° NNW 14:39:04 13° NW visible
07 Dec 11.1 10:52:01 10° NNE 10:53:13 16° NNE 10:53:13 16° NNE visible
07 Dec 10.0 12:31:59 10° NNE 12:34:24 26° N 12:34:24 26° N visible
07 Dec 10.2 14:12:47 10° N 14:15:34 16° NNW 14:15:34 16° NNW visible
08 Dec 11.4 00:06:16 10° WSW 00:08:39 13° W 00:11:02 10° NW visible
08 Dec 11.4 10:29:04 10° NNE 10:29:44 13° NE 10:29:44 13° NE visible
08 Dec 10.2 12:08:45 10° NNE 12:10:55 25° N 12:10:55 25° N visible
08 Dec 10.1 13:49:21 10° N 13:52:05 19° NNW 13:52:05 19° NNW visible
09 Dec 10.5 11:45:34 10° NNE 11:47:25 22° NNE 11:47:25 22° NNE visible
09 Dec 10.0 13:25:59 10° N 13:28:36 22° NNW 13:28:36 22° NNW visible
09 Dec 10.5 15:08:30 10° NNW 15:08:39 10° NNW 15:08:47 10° NNW visible
10 Dec 10.8 11:22:26 10° NNE 11:23:56 19° NNE 11:23:56 19° NNE visible
10 Dec 10.0 13:02:40 10° N 13:05:07 24° NNW 13:05:07 24° NNW visible
10 Dec 10.4 14:43:54 10° N 14:45:57 12° NNW 14:46:18 12° NW visible
